OPS 3367 B

Satellite information

Favourite Embed

Satellite Type and Status

PAYLOADIN ORBIT

Key statistics

Satellite OPS 3367 B at a glance.

Uptime

22390

Days in orbit

Revolutions

≈ 14.3

Per day

Orbit

SSO

Sun Synchronous Orbit

Inclination

99.0

Latest

Satellite identification and parameters

Extended collection of information and parameters for OPS 3367 B.

Object identification

Identified? True

Debris? False

Object name: OPS 3367 B

International designator: 1964-002C

Object number (NORAD): 735

Object ID (CCSDS): 735

Country: UNITED STATES OF AMERICA (US)

Current information (Y/N): Y

RCS size: MEDIUM

Orbital parameters

Period: 100.809 minutes

Inclination: 98.9866 deg

SMA: 7175.091 km

Apoapsis: 809.363 km

Periapsis: 784.549 km

RAAN: 35.7307 deg

Eccentricy: 0.0017292

Argument of periapsis: 44.3028 deg

Mean anomaly: 315.9533 deg

Mean motion: 14.28438821 rev/day

Mean motion (dot): 0.00000144 rev/day2

B* drag term: 0.000076261 1/REarth

Two-line elements (TLE)

Creation date: May 8, 2025, 3:01 a.m.

Reference frame: TEME

Reference center: EARTH

Epoch: May 7, 2025, 5:12 p.m. UTC

TLE line 0: 0 OPS 3367 B

TLE line 1: 1 00735U 64002C 25127.71719815 .00000144 00000-0 76261-4 0 9998

TLE line 2: 2 00735 98.9866 35.7307 0017292 44.3028 315.9533 14.28438821188827

Live tracking on map

Real-time ground track for satellite OPS 3367 B.

In-orbit conjunctions

There are no conjunctions computed for OPS 3367 B, at the moment. Check back to stay up to date, as we update our databases every day.

Go to all conjunctions

Associated space launch

The DSAP-1 (Defense Satellite Application Program Block 1) satellites series, also known as P-35, was the first series of military meteorologal satellites of the USA.

OPS 3367 B was lifted into orbit during the mission ‘Thor SLV-2 Agena D | DSAP-1 F6 & F7’, on board a Thor SLV-2 Agena D space rocket.

The launch took place on Jan. 19, 1964, 10:59 a.m. from Space Launch Complex 2W.

For more information about the launch, click the button.

Launch to space Thor SLV-2 Agena D | DSAP-1 F6 & F7
Thor SLV-2 Agena D | DSAP-1 F6 & F7

Agency: N/A

Status: Launch Successful

Launch date: Jan. 19, 1964, 10:59 a.m. UTC

Rocket: Thor SLV-2 Agena D

Launch pad: Space Launch Complex 2W

Location: Vandenberg SFB, CA, USA

...

Latest news about this satellite

There are no fresh news available about this satellite. Check back as we update our databases every day.


Newsletter sign-up

Weekly statistics, charts and insights to help you stay on top of the space industry.